[Date Prev][Date Next][Thread Prev][Thread Next] - [Date Index][Thread Index][Author Index]
2 Line ISS Keps 6-19
- Subject: [sarex] 2 Line ISS Keps 6-19
- From: "Dave Larsen PhD" <doc@xxxxxxxxxxx>
- Date: Tue, 19 Jun 2001 05:12:54 -0700
ISS
1 25544U 98067A 01170.42280093 .00053389 00000-0 58996-3 0 1098
2 25544 51.5715 77.3778 0016819 179.6239 342.0755 15.62333983147424
----
Via the sarex mailing list at AMSAT.ORG courtesy of AMSAT-NA.
To unsubscribe, send "unsubscribe sarex" to Majordomo@amsat.org
AMSAT Home